Wind_Speed
18 18 17 17 17 16 14 13 12 10 10 9 9 9 10 11 12 14 16 13 13 16 12 12 14 14 13 16 15 11 13 14 17 12 10 5 6 15 5 8 10 3 6 4 6
21 21 20 18 18 18 16 14 13 11 10 10 10 10 11 13 15 20 17 16 17 14 12 17 18 16 18 16 14 16 12 18 10 8 3 6 6 10 7 13 15 11 5 2 5
22 22 22 21 20 18 18 16 15 13 12 11 10 10 10 12 14 6 13 22 16 15 13 14 13 16 19 16 20 17 17 18 6 8 11 15 12 9 14 14 12 12 6 5 7
24 25 24 22 21 19 18 17 16 14 13 12 11 10 8 7 5 4 4 8 14 16 14 16 15 18 18 17 18 19 20 16 15 6 12 12 15 17 11 17 16 5 5 7 10
26 26 26 25 23 20 18 17 16 14 13 12 11 9 6 8 14 8 6 6 13 18 16 17 18 18 17 16 17 17 17 14 14 15 14 15 16 17 18 16 16 13 11 14 13
27 27 27 25 23 21 18 17 15 14 13 12 11 8 6 16 2 4 9 8 13 16 16 17 14 16 19 17 16 15 16 22 12 16 16 16 18 19 22 15 16 12 14 13 13
28 29 26 25 23 20 17 16 13 11 10 9 8 7 10 17 5 4 10 13 13 14 15 16 16 11 11 17 18 17 17 16 17 16 15 12 18 19 19 15 11 16 15 11 7
28 28 26 25 21 17 14 11 9 7 4 3 5 4 8 5 5 8 10 14 14 13 13 12 14 15 21 16 9 14 17 16 18 20 17 14 17 19 21 18 14 16 17 10 10
28 25 26 21 17 15 14 11 10 7 5 1 2 5 8 5 2 9 12 13 13 13 11 8 13 18 18 16 14 16 15 19 15 7 10 14 15 19 13 10 14 14 15 13 8
26 20 21 17 17 17 15 10 9 3 7 2 3 6 6 2 1 4 11 11 14 13 12 13 12 15 15 14 16 17 18 17 12 15 12 14 17 16 9 15 14 14 16 12 9
26 18 18 16 16 14 18 14 7 2 7 8 6 8 5 5 4 4 11 12 15 15 15 18 13 17 20 20 21 22 14 14 10 11 7 15 15 14 13 16 14 17 12 11 3
25 18 14 13 14 11 14 10 7 7 8 2 2 2 2 4 7 12 11 14 18 16 20 16 17 19 17 18 15 18 14 17 15 11 9 15 18 16 13 13 18 16 13 5 6
25 19 11 11 9 11 7 12 8 7 8 6 1 3 3 2 2 8 13 19 16 19 20 20 17 14 20 14 15 17 18 16 16 12 10 16 18 14 16 11 5 2 3 6 4
25 20 13 8 4 8 6 14 8 3 6 4 3 3 1 3 7 3 8 19 20 21 20 21 22 15 13 17 16 18 17 16 16 14 13 21 14 20 18 12 12 11 10 6 3
24 19 10 8 6 8 12 13 5 2 4 4 3 4 3 7 7 9 6 12 20 19 16 21 22 20 19 17 17 16 17 13 16 17 16 16 9 17 21 20 16 9 6 6 8
24 18 9 8 8 10 13 10 3 7 2 3 2 7 9 1 2 7 6 9 12 18 22 21 23 16 16 17 13 10 13 17 13 15 16 21 17 12 13 22 18 12 8 7 8
24 17 6 3 8 15 11 6 7 4 4 4 5 8 11 4 7 6 5 11 12 11 17 21 21 12 5 12 12 13 14 11 14 14 17 18 19 12 11 12 16 13 12 9 7
23 11 4 3 14 12 6 9 6 6 3 3 7 11 7 8 8 6 10 13 9 12 15 15 17 20 14 17 18 14 18 15 20 14 14 14 21 10 15 14 15 13 11 9 7
21 6 2 8 13 8 11 8 6 5 4 7 11 6 5 5 4 15 15 11 8 11 13 12 6 5 5 5 10 16 14 9 10 18 14 9 10 10 13 13 15 15 11 8 6
22 5 5 15 9 5 9 4 2 3 7 6 10 2 9 10 10 12 8 6 3 3 11 10 9 13 10 9 10 12 8 8 10 14 18 15 7 5 2 5 10 13 10 7 2
11 8 3 10 4 12 5 5 2 3 6 4 6 8 11 10 8 11 9 5 6 11 12 12 9 9 8 10 14 8 12 14 13 7 12 13 10 7 4 3 11 11 7 5 2
6 5 9 8 9 3 4 4 2 4 3 5 5 6 7 7 11 11 9 7 8 12 11 9 7 13 15 4 13 11 12 1 6 13 13 13 12 12 13 9 3 4 1 5 5
10 7 7 8 3 3 2 2 3 3 2 3 4 3 4 8 5 4 5 3 7 10 9 11 7 11 17 17 13 13 16 14 13 14 18 11 3 4 4 3 4 1 2 2 5
8 3 2 3 3 6 3 3 4 3 9 6 7 4 9 10 8 7 8 2 3 11 5 7 11 14 12 4 8 12 4 10 10 11 18 18 18 9 7 9 5 3 3 6 6
3 4 4 4 4 7 4 2 7 4 5 4 5 6 7 8 11 12 10 7 8 10 9 7 14 15 14 12 7 12 15 13 13 14 14 14 3 16 17 16 4 3 8 10 11
6 6 4 11 5 7 4 2 6 2 4 5 5 10 6 10 11 14 14 12 9 4 9 7 11 12 12 13 14 10 14 13 15 14 14 13 13 7 10 2 7 9 8 8 11
6 5 6 3 5 6 2 4 4 3 7 6 8 7 10 9 11 12 15 14 15 11 10 7 10 10 13 5 8 13 16 15 17 16 13 12 10 10 3 4 6 8 10 12 10
Wind_Direction
357 352 348 345 340 336 333 330 327 319 308 301 297 291 289 288 284 276 260 243 228 246 213 202 210 219 224 233 232 242 262 251 252 246 244 239 245 245 241 259 235 232 292 40 136
358 352 345 339 335 332 326 320 317 315 308 297 293 294 295 295 293 269 248 241 236 222 198 200 210 211 220 226 219 231 232 251 293 332 293 285 240 267 247 250 227 201 173 32 143
355 350 345 339 331 326 323 316 308 306 307 298 288 289 300 308 304 236 233 239 220 202 194 205 211 213 227 224 221 228 248 276 320 264 278 279 262 253 252 256 248 231 152 182 190
352 348 344 337 330 324 319 315 306 296 295 295 282 278 292 295 294 251 214 190 193 183 194 210 219 215 233 233 234 241 258 262 275 239 250 255 263 268 259 260 264 220 260 258 205
348 346 342 336 331 325 317 312 303 291 286 287 274 269 279 249 263 264 222 192 190 183 202 209 221 224 239 245 240 245 251 262 259 253 247 261 255 264 262 252 254 253 255 244 218
346 345 341 337 333 327 319 313 302 290 278 278 266 258 257 258 273 268 223 193 181 187 203 213 224 231 256 271 255 248 256 259 244 247 241 244 253 247 255 255 244 245 243 237 223
347 346 343 340 335 329 322 316 312 301 286 275 258 251 255 248 258 245 203 194 192 201 214 221 230 248 240 262 258 256 261 257 245 239 244 238 254 245 243 248 233 237 230 238 242
349 349 348 346 342 339 333 331 339 338 328 268 241 221 262 239 247 227 207 202 204 209 224 229 234 249 249 266 270 244 245 254 233 212 225 231 258 223 229 223 238 240 226 215 221
351 354 356 3 11 8 358 358 360 11 29 93 64 199 260 313 258 223 202 204 208 205 215 235 229 237 237 249 244 225 246 227 246 184 238 207 249 252 181 200 239 244 233 218 203
355 358 7 14 16 14 9 8 8 39 17 49 276 225 235 23 18 198 199 202 196 204 217 219 220 226 233 221 236 227 216 248 237 168 219 230 236 269 185 217 224 233 232 225 216
358 359 3 9 15 20 17 342 345 151 278 317 320 301 278 255 249 184 189 197 200 207 220 208 218 221 232 228 249 274 282 292 248 232 214 239 248 235 232 228 226 230 216 217 204
357 358 355 2 14 26 29 33 15 327 299 285 228 327 290 306 248 218 186 201 210 225 221 237 231 250 239 255 242 255 259 257 262 253 220 250 242 248 244 227 230 228 184 159 206
354 355 353 359 21 18 28 7 336 313 260 145 105 346 14 247 248 225 204 222 223 230 237 236 235 231 246 242 244 241 248 249 253 217 247 262 255 224 231 202 131 203 124 186 210
351 351 352 2 3 348 2 350 339 274 259 126 167 77 287 277 227 208 243 239 232 241 241 251 240 253 250 254 240 248 237 253 265 245 241 206 251 217 209 180 183 180 195 174 133
348 345 344 355 334 360 329 335 319 276 250 69 52 316 302 327 341 168 268 237 245 245 241 251 238 244 251 250 239 246 269 225 247 255 260 242 241 292 173 181 177 170 143 142 95
345 340 335 339 326 320 322 319 308 231 102 127 310 339 311 18 356 309 248 234 249 255 259 251 266 230 259 239 253 284 263 258 243 246 243 244 249 234 217 184 147 143 140 113 94
344 338 326 319 319 319 313 278 245 281 134 79 340 323 307 310 296 312 294 228 245 230 237 236 250 218 243 258 227 238 240 241 228 228 243 245 236 252 91 85 136 139 133 111 103
345 341 15 296 323 313 309 253 260 71 32 25 304 302 286 4 292 300 281 266 204 293 281 266 237 201 180 245 259 232 232 244 250 247 259 279 229 136 115 121 127 127 110 106 93
344 345 311 306 321 305 272 248 25 23 4 325 301 254 239 228 300 299 279 287 14 339 313 289 287 189 314 264 263 252 259 277 309 275 263 239 104 126 142 146 150 139 123 103 88
342 326 251 327 309 285 257 9 358 10 318 302 292 354 312 322 317 310 309 47 323 316 329 315 281 196 164 249 227 251 302 254 241 270 271 267 203 324 290 161 160 132 124 100 48
356 285 332 341 292 253 298 50 296 72 328 309 325 296 295 309 299 300 290 81 30 315 309 295 276 250 261 222 248 197 236 231 249 215 251 265 278 136 153 53 343 65 65 56 336
329 277 343 339 249 322 358 9 14 277 246 281 286 283 288 311 289 283 282 338 23 313 291 334 305 272 233 292 322 302 283 4 288 223 234 267 260 140 156 156 210 61 94 66 25
318 299 335 333 311 20 98 229 290 271 298 288 276 242 320 287 297 227 300 23 326 300 1 351 249 265 245 213 190 248 259 254 253 265 269 258 246 335 59 172 148 312 35 360 340
309 291 105 62 61 320 355 181 249 191 282 278 289 268 274 267 235 263 281 202 245 294 22 312 279 275 287 132 225 282 258 279 278 262 259 254 261 212 224 265 203 246 296 311 323
319 45 348 321 51 327 286 314 277 250 219 255 241 252 300 293 284 279 274 301 274 237 257 255 275 277 280 289 278 283 283 278 246 259 267 264 302 193 213 227 154 278 284 294 300
322 340 322 279 298 276 146 231 306 305 273 271 254 305 285 280 286 308 316 296 299 314 267 243 265 276 285 272 267 275 275 268 262 266 269 275 274 289 287 10 282 256 267 287 300
330 290 286 265 244 269 17 353 325 311 271 290 313 307 284 320 330 304 293 288 282 277 286 289 272 274 270 326 298 267 258 257 254 245 251 260 273 21 47 236 267 298 295 286 303
Height
1546 1542 1539 1536 1533 1530 1528 1525 1523 1521 1520 1518 1517 1516 1514 1513 1511 1509 1508 1509 1508 1508 1510 1512 1515 1515 1516 1513 1512 1512 1505 1498 1486 1482 1480 1479 1490 1489 1492 1494 1494 1494 1494 1501 1504
1545 1541 1538 1535 1532 1528 1526 1523 1521 1519 1518 1516 1515 1514 1513 1511 1508 1505 1505 1504 1505 1506 1509 1512 1513 1514 1512 1510 1509 1507 1500 1490 1479 1478 1483 1482 1489 1489 1492 1491 1489 1492 1495 1495 1495
1544 1540 1537 1533 1529 1526 1523 1520 1519 1517 1515 1514 1513 1512 1511 1509 1507 1500 1498 1500 1502 1504 1509 1511 1511 1511 1508 1505 1503 1501 1499 1485 1483 1492 1493 1488 1487 1491 1492 1488 1486 1487 1491 1497 1500
1543 1539 1534 1530 1526 1523 1520 1517 1515 1514 1513 1512 1511 1510 1510 1510 1501 1498 1498 1497 1501 1504 1509 1509 1509 1508 1504 1498 1499 1498 1494 1491 1489 1493 1497 1493 1491 1489 1490 1490 1486 1487 1492 1496 1498
1541 1537 1532 1527 1523 1520 1517 1514 1511 1510 1509 1509 1508 1508 1509 1510 1503 1497 1498 1498 1500 1503 1507 1508 1507 1505 1500 1496 1495 1492 1491 1489 1493 1493 1494 1494 1491 1489 1489 1489 1490 1490 1494 1494 1495
1540 1535 1529 1524 1520 1516 1513 1511 1508 1506 1506 1506 1506 1506 1508 1506 1500 1499 1499 1499 1501 1504 1506 1506 1505 1503 1498 1495 1492 1489 1490 1489 1489 1491 1492 1493 1490 1489 1486 1487 1490 1490 1492 1491 1491
1538 1532 1527 1522 1517 1513 1510 1507 1505 1504 1503 1503 1504 1505 1507 1502 1499 1500 1500 1501 1503 1504 1505 1505 1505 1504 1502 1497 1493 1490 1490 1486 1485 1486 1487 1489 1488 1483 1482 1483 1486 1488 1489 1489 1490
1536 1530 1525 1519 1514 1510 1507 1505 1504 1503 1502 1502 1502 1503 1500 1497 1498 1498 1500 1501 1503 1504 1505 1505 1505 1505 1501 1496 1493 1490 1487 1487 1472 1478 1483 1487 1484 1471 1477 1481 1485 1485 1486 1487 1490
1535 1529 1523 1518 1514 1510 1507 1505 1504 1503 1501 1501 1502 1503 1496 1495 1495 1496 1498 1500 1502 1504 1505 1505 1505 1503 1499 1496 1492 1484 1487 1478 1470 1472 1478 1482 1479 1470 1471 1479 1483 1482 1482 1486 1489
1534 1529 1524 1519 1516 1512 1508 1506 1504 1503 1502 1501 1503 1506 1497 1495 1495 1496 1498 1499 1502 1503 1504 1504 1501 1496 1492 1488 1491 1477 1476 1472 1467 1468 1478 1475 1477 1468 1471 1478 1481 1482 1482 1482 1489
1533 1528 1524 1520 1516 1514 1509 1506 1507 1507 1505 1501 1499 1496 1495 1496 1495 1496 1497 1499 1501 1501 1497 1497 1494 1489 1484 1478 1474 1467 1472 1468 1461 1463 1476 1474 1470 1468 1470 1475 1476 1478 1481 1484 1489
1532 1528 1524 1521 1518 1515 1513 1512 1513 1514 1506 1499 1498 1495 1495 1495 1493 1493 1496 1498 1497 1493 1493 1489 1490 1480 1475 1473 1474 1476 1479 1477 1468 1465 1474 1475 1472 1466 1467 1469 1473 1474 1476 1486 1494
1531 1527 1524 1520 1518 1515 1516 1515 1513 1512 1506 1495 1496 1495 1495 1494 1491 1490 1494 1493 1490 1490 1485 1483 1475 1472 1476 1472 1481 1478 1479 1474 1473 1464 1473 1475 1469 1464 1462 1464 1472 1481 1484 1491 1495
1530 1526 1523 1520 1519 1516 1515 1514 1512 1510 1496 1492 1491 1492 1493 1491 1489 1491 1490 1491 1486 1482 1480 1475 1472 1471 1476 1474 1474 1481 1470 1473 1471 1473 1478 1463 1477 1454 1456 1469 1477 1483 1486 1489 1491
1529 1525 1522 1519 1518 1517 1517 1513 1511 1510 1492 1492 1491 1494 1490 1489 1489 1485 1489 1487 1482 1476 1479 1472 1468 1471 1470 1472 1469 1474 1467 1466 1473 1472 1471 1462 1473 1447 1445 1464 1473 1481 1488 1490 1491
1528 1523 1520 1520 1518 1518 1515 1512 1511 1503 1497 1491 1493 1493 1487 1486 1487 1486 1486 1486 1481 1478 1472 1466 1463 1462 1465 1465 1467 1469 1471 1469 1468 1469 1479 1462 1459 1454 1442 1449 1464 1482 1490 1490 1491
1526 1521 1518 1518 1519 1515 1513 1511 1499 1488 1491 1495 1497 1495 1491 1487 1485 1486 1482 1478 1478 1479 1474 1462 1464 1465 1473 1472 1470 1475 1476 1485 1484 1478 1473 1451 1457 1450 1456 1455 1467 1482 1488 1490 1492
1524 1519 1518 1517 1517 1513 1511 1503 1501 1491 1493 1496 1496 1493 1492 1491 1483 1487 1483 1479 1474 1477 1470 1466 1469 1457 1467 1474 1470 1465 1470 1476 1483 1471 1455 1442 1450 1456 1463 1471 1477 1484 1488 1492 1494
1521 1520 1519 1518 1514 1511 1509 1493 1492 1498 1502 1501 1494 1492 1486 1491 1494 1486 1481 1481 1480 1487 1485 1469 1468 1471 1476 1476 1476 1471 1474 1463 1478 1466 1467 1455 1458 1467 1470 1476 1480 1482 1487 1494 1497
1519 1519 1517 1514 1511 1510 1500 1507 1499 1506 1507 1502 1500 1496 1496 1491 1496 1488 1486 1484 1488 1494 1492 1479 1483 1472 1475 1481 1476 1475 1466 1483 1476 1496 1494 1473 1474 1487 1479 1478 1477 1480 1486 1495 1499
1520 1517 1514 1511 1510 1505 1493 1500 1505 1509 1511 1508 1501 1502 1499 1499 1500 1496 1493 1490 1497 1498 1494 1489 1489 1474 1475 1476 1471 1472 1475 1474 1477 1493 1488 1489 1477 1486 1490 1502 1482 1485 1494 1497 1500
1523 1512 1513 1511 1506 1504 1499 1509 1515 1510 1512 1510 1509 1505 1504 1503 1503 1499 1496 1491 1503 1503 1498 1488 1491 1485 1476 1474 1480 1475 1473 1478 1494 1487 1479 1473 1475 1480 1488 1496 1500 1496 1502 1501 1503
1524 1517 1515 1511 1501 1500 1511 1511 1514 1512 1511 1509 1507 1508 1506 1506 1509 1500 1501 1503 1507 1504 1500 1497 1491 1490 1476 1470 1473 1482 1476 1476 1480 1488 1492 1495 1488 1491 1492 1495 1498 1498 1499 1501 1505
1527 1511 1511 1513 1515 1514 1510 1507 1509 1515 1513 1513 1509 1510 1507 1505 1501 1504 1499 1500 1507 1506 1509 1508 1498 1492 1487 1506 1499 1489 1482 1480 1481 1489 1483 1482 1476 1496 1497 1496 1494 1498 1500 1502 1503
1528 1521 1524 1509 1510 1516 1515 1511 1509 1509 1514 1513 1508 1510 1507 1508 1499 1496 1494 1497 1500 1502 1506 1505 1502 1492 1485 1481 1483 1487 1485 1481 1483 1481 1485 1479 1493 1498 1496 1492 1495 1499 1503 1503 1503
1531 1529 1524 1519 1521 1517 1516 1507 1512 1511 1515 1508 1512 1508 1511 1510 1506 1503 1502 1503 1504 1501 1501 1501 1500 1493 1492 1481 1480 1486 1484 1481 1481 1481 1480 1479 1480 1479 1484 1491 1496 1498 1499 1501 1503
1534 1532 1531 1519 1514 1515 1507 1511 1513 1518 1515 1515 1515 1514 1511 1509 1510 1511 1510 1508 1506 1504 1504 1506 1501 1497 1495 1483 1485 1487 1477 1477 1477 1477 1480 1484 1480 1482 1485 1492 1495 1497 1499 1501 1501